DW2537 Weather Reports


Display with metric or nautical units.
time (UTC)temp
F
wind
direction
speed
MPH
gust
MPH
rain 1hr
in
rain 24hr
in
rain mn
in
humidity
%
barometer
mb
20260904061538 72 148 0.0 5.0 0.00 0.19 0.18 95 1013.2
20260904060521 72 160 0.0 4.0 0.00 0.19 0.18 96 1013.2
20260904060040 72 0 1.0 4.0 0.00 0.19 0.18 96 1013.2
20260904055525 72 0 0.0 2.0 0.00 0.19 0.18 95 1013.1
20260904055019 72 0 0.0 1.0 0.00 0.19 0.18 95 1013.1
20260904054539 72 0 0.0 2.0 0.00 0.19 0.18 95 1013.0
20260904053039 72 0 0.0 1.0 0.01 0.19 0.18 95 1012.4
20260904052019 72 215 0.0 4.0 0.04 0.19 0.18 94 1012.8
20260904051540 72 262 1.0 4.0 0.07 0.19 0.18 94 1013.0
20260904051020 72 154 1.0 3.0 0.18 0.19 0.18 93 1013.2
20260904050520 72 158 0.0 3.0 0.18 0.19 0.18 93 1013.5
20260904050039 72 0 0.0 3.0 0.18 0.19 0.18 93 1013.7
20260904045520 73 178 0.0 2.0 0.18 0.19 0.18 92 1013.9
20260904044541 73 105 1.0 6.0 0.18 0.19 0.18 91 1014.0
20260904043042 75 157 1.0 11.0 0.17 0.18 0.17 88 1014.8
20260904042019 77 19 3.0 13.0 0.14 0.15 0.14 82 1015.2
20260904041555 80 36 3.0 13.0 0.09 0.10 0.09 83 1015.2
20260904040048 81 219 1.0 9.0 0.00 0.01 0.00 78 1013.5
20260904034547 80 0 0.0 5.0 0.00 0.01 0.01 79 1013.3
20260904033059 79 30 0.0 4.0 0.00 0.01 0.01 89 1013.6
20260904031540 80 0 0.0 0.0 0.00 0.01 0.01 89 1013.4
20260904030525 80 0 0.0 0.0 0.00 0.01 0.01 89 1013.4
20260904030046 80 0 0.0 1.0 0.00 0.01 0.01 89 1013.6
20260904024546 80 0 0.0 1.0 0.00 0.01 0.01 88 1013.6
20260904023046 80 0 0.0 1.0 0.00 0.01 0.01 87 1013.8
20260904021541 81 0 0.0 2.0 0.00 0.01 0.01 87 1013.7
20260904021022 81 182 0.0 2.0 0.00 0.01 0.01 87 1013.6
20260904020521 81 198 0.0 1.0 0.00 0.01 0.01 87 1013.7
20260904020100 81 0 0.0 1.0 0.00 0.01 0.01 87 1013.8
20260904014631 81 0 0.0 1.0 0.00 0.01 0.01 86 1013.8
20260904013051 81 0 0.0 1.0 0.00 0.01 0.01 85 1013.5
20260904011540 82 0 0.0 1.0 0.00 0.01 0.01 85 1013.5
20260904010518 82 0 0.0 0.0 0.00 0.01 0.01 84 1013.7
20260904010040 82 0 0.0 0.0 0.00 0.01 0.01 84 1013.8
20260904005521 82 0 0.0 0.0 0.00 0.01 0.01 83 1013.9
20260904005020 82 0 0.0 1.0 0.00 0.01 0.01 83 1013.9
20260904004541 82 0 0.0 1.0 0.00 0.01 0.01 83 1014.0
20260904003048 83 0 0.0 1.0 0.00 0.01 0.01 82 1014.1
20260904002518 83 209 0.0 1.0 0.00 0.01 0.01 81 1014.0
20260904002021 83 0 0.0 1.0 0.00 0.01 0.01 81 1014.1
20260904001538 83 0 0.0 4.0 0.00 0.01 0.01 81 1014.2
20260904001020 83 0 0.0 4.0 0.00 0.01 0.01 81 1014.1
20260904000520 83 0 0.0 1.0 0.00 0.01 0.01 80 1014.1
20260904000047 84 176 0.0 1.0 0.00 0.01 0.01 80 1013.8
20260903234541 84 0 0.0 2.0 0.00 0.01 0.01 79 1013.6
20260903233039 85 0 0.0 1.0 0.00 0.01 0.01 78 1013.3
20260903232018 85 0 0.0 1.0 0.00 0.01 0.01 77 1013.2
20260903231539 86 0 0.0 1.0 0.00 0.01 0.01 76 1013.4
20260903231023 86 0 0.0 1.0 0.00 0.01 0.01 75 1013.3
20260903230522 86 0 0.0 1.0 0.00 0.01 0.01 75 1013.2
20260903230049 87 0 0.0 1.0 0.00 0.01 0.01 74 1013.3
20260903224539 88 0 0.0 2.0 0.00 0.01 0.01 71 1013.2
20260903223045 89 0 0.0 3.0 0.00 0.01 0.01 70 1013.2
20260903222520 89 238 0.0 3.0 0.00 0.01 0.01 69 1013.2
20260903222021 89 212 0.0 2.0 0.00 0.01 0.01 68 1013.2
20260903221548 90 178 0.0 2.0 0.00 0.01 0.01 67 1013.1
20260903220042 90 212 0.0 6.0 0.00 0.01 0.01 65 1013.2
20260903214544 90 0 0.0 3.0 0.00 0.01 0.01 64 1013.2
20260903213522 91 233 0.0 5.0 0.00 0.01 0.01 65 1013.2
20260903213043 90 183 0.0 4.0 0.00 0.01 0.01 61 1013.2
20260903212520 90 109 1.0 4.0 0.00 0.01 0.01 63 1013.2
20260903212023 91 0 1.0 6.0 0.00 0.01 0.01 63 1013.3
20260903211545 91 139 1.0 6.0 0.00 0.01 0.01 64 1013.2
20260903210040 91 202 2.0 5.0 0.00 0.01 0.01 64 1013.2
20260903205520 91 207 1.0 7.0 0.00 0.01 0.01 62 1013.3
20260903204539 91 298 1.0 4.0 0.00 0.01 0.01 63 1013.4
20260903204020 91 182 1.0 4.0 0.00 0.01 0.01 62 1013.5
20260903203522 91 272 1.0 4.0 0.00 0.01 0.01 65 1013.6
20260903203039 91 39 0.0 4.0 0.00 0.01 0.01 63 1013.6
20260903202519 91 188 1.0 4.0 0.00 0.01 0.01 62 1013.7
20260903202020 91 223 0.0 10.0 0.00 0.01 0.01 61 1013.8
20260903201545 91 171 1.0 10.0 0.00 0.01 0.01 63 1013.9
20260903200043 90 55 2.0 6.0 0.00 0.01 0.01 64 1014.0
20260903194540 88 54 2.0 7.0 0.00 0.01 0.01 65 1014.2
20260903193521 87 165 0.0 7.0 0.00 0.01 0.01 71 1014.4
20260903193039 87 162 1.0 7.0 0.00 0.01 0.01 70 1014.5
20260903192521 86 98 1.0 6.0 0.00 0.01 0.01 70 1014.6
20260903192021 86 0 0.0 3.0 0.00 0.01 0.01 69 1014.7
20260903191538 86 273 0.0 3.0 0.00 0.01 0.01 66 1014.7
20260903191021 86 119 0.0 3.0 0.00 0.01 0.01 68 1014.9
20260903190049 87 261 1.0 6.0 0.00 0.01 0.01 69 1015.0
20260903185022 87 22 1.0 4.0 0.00 0.01 0.01 67 1015.0
20260903184539 87 0 0.0 7.0 0.00 0.01 0.01 70 1015.0
20260903184021 86 0 1.0 7.0 0.00 0.01 0.01 68 1014.9
20260903183521 86 165 1.0 8.0 0.00 0.01 0.01 67 1015.0
20260903183045 87 169 3.0 8.0 0.00 0.01 0.01 67 1014.9
20260903181538 87 157 2.0 7.0 0.00 0.01 0.01 69 1014.9
20260903180519 86 193 1.0 10.0 0.00 0.01 0.01 73 1015.3
20260903180055 86 123 2.0 11.0 0.00 0.01 0.01 72 1015.4
20260903175523 86 170 2.0 11.0 0.00 0.46 0.01 73 1015.4
20260903175022 86 164 3.0 10.0 0.00 0.46 0.01 72 1015.5
20260903174540 85 0 1.0 8.0 0.00 0.46 0.01 74 1015.7
20260903174024 85 0 2.0 8.0 0.00 0.46 0.01 76 1015.7
20260903173047 84 163 1.0 6.0 0.00 0.46 0.01 76 1015.8
20260903171540 81 0 1.0 4.0 0.00 0.46 0.01 83 1016.0
20260903170116 80 199 1.0 5.0 0.00 0.46 0.01 83 1016.1
20260903165521 80 0 0.0 5.0 0.00 0.46 0.01 83 1016.0
20260903165018 80 159 1.0 10.0 0.00 0.46 0.01 86 1016.1
20260903164548 80 232 2.0 10.0 0.00 0.46 0.01 86 1016.4
20260903163041 80 213 0.0 4.0 0.00 0.46 0.01 88 1016.6
20260903162021 80 144 1.0 4.0 0.00 0.46 0.01 87 1016.4
20260903161558 80 0 0.0 2.0 0.00 0.46 0.01 89 1016.8
20260903160525 79 0 0.0 4.0 0.00 0.46 0.01 90 1017.4
20260903160043 79 60 0.0 5.0 0.00 0.46 0.01 88 1017.4
20260903155519 79 0 1.0 5.0 0.00 0.46 0.01 89 1018.2
20260903155020 79 234 1.0 6.0 0.00 0.46 0.01 90 1018.2
20260903154554 79 299 0.0 6.0 0.00 0.46 0.01 90 1018.4
20260903153041 80 0 0.0 5.0 0.00 0.46 0.01 88 1017.5
20260903151547 80 92 1.0 6.0 0.00 0.46 0.01 89 1017.1
20260903150044 80 9 2.0 9.0 0.00 0.46 0.01 89 1016.8
20260903145520 79 218 2.0 7.0 0.00 0.46 0.01 91 1016.7
20260903145020 79 158 0.0 4.0 0.00 0.46 0.01 91 1016.8
20260903144539 79 0 0.0 4.0 0.00 0.46 0.01 91 1016.7
20260903144020 79 131 1.0 4.0 0.00 0.46 0.01 92 1016.6
20260903143050 78 32 1.0 7.0 0.00 0.46 0.01 92 1016.2
20260903141540 77 142 0.0 6.0 0.00 0.46 0.01 94 1016.7
20260903140054 76 14 0.0 5.0 0.00 0.46 0.01 96 1016.4
20260903135520 76 140 0.0 5.0 0.00 0.46 0.01 96 1016.1
20260903135020 76 0 0.0 3.0 0.00 0.46 0.01 96 1016.3
20260903134544 76 180 0.0 3.0 0.00 0.46 0.01 96 1016.3
20260903133043 76 153 1.0 7.0 0.00 0.46 0.01 96 1016.1
20260903131540 76 0 0.0 2.0 0.00 0.46 0.01 97 1017.2
20260903131021 76 0 0.0 2.0 0.00 0.46 0.01 97 1017.1
20260903130521 75 0 0.0 2.0 0.00 0.46 0.01 97 1017.2
20260903130051 75 170 0.0 2.0 0.00 0.46 0.01 97 1017.4
20260903124540 75 135 0.0 2.0 0.00 0.46 0.01 98 1017.6
20260903123521 75 157 1.0 3.0 0.00 0.46 0.01 98 1017.9
20260903123042 75 132 0.0 1.0 0.00 0.46 0.01 98 1018.1
20260903122523 75 0 0.0 2.0 0.00 0.46 0.01 98 1018.1
20260903122024 75 0 0.0 2.0 0.00 0.46 0.01 98 1018.1
20260903121539 74 173 0.0 1.0 0.00 0.46 0.01 98 1018.2
20260903121024 74 0 0.0 1.0 0.01 0.46 0.01 98 1018.2
20260903120047 74 0 0.0 2.0 0.01 0.46 0.01 98 1018.4
20260903114559 74 200 0.0 2.0 0.01 0.46 0.01 98 1018.8
20260903113522 74 0 0.0 1.0 0.01 0.46 0.01 98 1018.9
20260903113039 74 0 0.0 1.0 0.01 0.46 0.01 98 1018.8
20260903112524 74 0 0.0 1.0 0.01 0.46 0.01 98 1018.7
20260903112020 74 0 0.0 2.0 0.01 0.46 0.01 98 1018.4
20260903111539 73 0 0.0 2.0 0.01 0.46 0.01 98 1018.1
20260903110051 73 0 0.0 1.0 0.00 0.45 0.00 98 1017.8
20260903104541 73 0 0.0 1.0 0.00 0.45 0.00 98 1017.4
20260903103039 73 0 0.0 1.0 0.00 0.45 0.00 98 1017.1
20260903102022 73 0 0.0 1.0 0.00 0.45 0.00 98 1017.1
20260903101538 73 0 0.0 1.0 0.00 0.45 0.00 98 1017.1
20260903100041 72 0 0.0 0.0 0.00 0.45 0.00 97 1016.4
20260903095018 72 0 0.0 1.0 0.00 0.45 0.00 97 1016.5
20260903094542 72 0 0.0 1.0 0.00 0.45 0.00 97 1016.6
20260903094020 73 0 0.0 1.0 0.00 0.45 0.00 97 1016.7
20260903093520 72 115 0.0 1.0 0.00 0.45 0.00 97 1016.7
20260903093051 72 0 0.0 0.0 0.00 0.45 0.00 97 1016.8
20260903092520 72 0 0.0 0.0 0.00 0.45 0.00 97 1016.9
20260903091546 73 0 0.0 0.0 0.00 0.45 0.00 97 1016.9
20260903090041 73 0 0.0 1.0 0.00 0.45 0.00 97 1017.0
20260903084539 73 0 0.0 2.0 0.00 0.45 0.00 97 1016.7
20260903084020 73 0 0.0 2.0 0.00 0.45 0.00 97 1016.9
20260903083520 73 0 0.0 2.0 0.00 0.45 0.00 97 1017.0
20260903083039 73 0 0.0 1.0 0.00 0.45 0.00 97 1017.1
20260903082519 73 0 0.0 2.0 0.00 0.45 0.00 97 1017.0
20260903082020 73 0 0.0 2.0 0.00 0.45 0.00 97 1016.9
20260903081544 73 49 0.0 2.0 0.00 0.45 0.00 97 1016.9
20260903080040 72 0 0.0 1.0 0.00 0.45 0.00 97 1016.8
20260903075519 72 0 0.0 2.0 0.00 0.45 0.00 97 1016.7
20260903075020 72 0 0.0 2.0 0.00 0.45 0.00 97 1016.7
20260903074541 72 303 0.0 1.0 0.00 0.45 0.00 97 1016.8
20260903073045 72 0 0.0 1.0 0.00 0.45 0.00 97 1016.7
20260903071540 72 0 0.0 0.0 0.00 0.45 0.00 97 1016.6
20260903070039 72 0 0.0 0.0 0.00 0.45 0.00 97 1016.7
20260903065520 72 0 0.0 0.0 0.00 0.45 0.00 97 1016.5
20260903065018 72 0 0.0 0.0 0.00 0.45 0.00 97 1016.5
20260903064544 72 0 0.0 1.0 0.00 0.45 0.00 97 1016.4
20260903063041 72 0 0.0 2.0 0.00 0.45 0.00 97 1016.5